FW4212 Weather Reports


Display with metric or nautical units.
time (UTC)temp
F
wind
direction
speed
MPH
gust
MPH
rain 1hr
in
rain 24hr
in
rain mn
in
humidity
%
barometer
mb
20260505034606 55 261 0.0 0.0 0.00 0.00 0.00 68 1016.1
20260505034045 55 261 0.0 0.0 0.00 0.00 0.00 69 1016.2
20260505033545 55 261 0.0 0.0 0.00 0.00 0.00 68 1016.2
20260505033052 56 261 0.0 0.0 0.00 0.00 0.00 68 1016.2
20260505032547 56 261 0.0 0.0 0.00 0.00 0.00 67 1016.3
20260505032044 56 261 0.0 0.0 0.00 0.00 0.00 66 1016.2
20260505031545 57 261 0.0 0.0 0.00 0.00 0.00 65 1016.2
20260505031044 57 261 0.0 0.0 0.00 0.00 0.00 63 1016.2
20260505030544 57 261 0.0 0.0 0.00 0.00 0.00 61 1016.2
20260505030043 57 261 0.0 0.0 0.00 0.00 0.00 61 1016.3
20260505025543 57 261 0.0 0.0 0.00 0.00 0.00 62 1016.3
20260505025043 58 261 0.0 0.0 0.00 0.00 0.00 62 1016.2
20260505024543 58 261 0.0 0.0 0.00 0.00 0.00 61 1016.3
20260505024043 58 261 0.0 0.0 0.00 0.00 0.00 60 1016.3
20260505023543 59 261 0.0 0.0 0.00 0.00 0.00 59 1016.4
20260505023047 59 261 0.0 0.0 0.00 0.00 0.00 58 1016.3
20260505022546 61 261 0.0 0.0 0.00 0.00 0.00 55 1016.2
20260505022043 62 261 0.0 0.0 0.00 0.00 0.00 51 1016.2
20260505021542 62 263 0.0 0.0 0.00 0.00 0.00 50 1016.2
20260505021042 62 217 0.0 0.0 0.00 0.00 0.00 50 1016.3
20260505020542 61 217 0.0 0.0 0.00 0.00 0.00 52 1016.2
20260505020043 61 217 0.0 0.0 0.00 0.00 0.00 53 1016.1
20260505015541 61 217 0.0 0.0 0.00 0.00 0.00 53 1016.1
20260505015041 61 217 0.0 0.0 0.00 0.00 0.00 50 1016.0
20260505014541 61 217 0.0 0.0 0.00 0.00 0.00 49 1016.0
20260505014042 62 217 0.0 0.0 0.00 0.00 0.00 48 1016.0
20260505013541 62 217 0.0 0.0 0.00 0.00 0.00 48 1016.0
20260505013041 63 217 0.0 0.0 0.00 0.00 0.00 47 1015.7
20260505012541 63 217 0.0 0.0 0.00 0.00 0.00 46 1015.8
20260505012041 64 217 0.0 0.0 0.00 0.00 0.00 45 1015.7
20260505011602 64 217 0.0 0.0 0.00 0.00 0.00 45 1015.7
20260505011041 64 217 0.0 1.0 0.00 0.00 0.00 45 1015.6
20260505010540 65 217 0.0 1.0 0.00 0.00 0.00 45 1015.6
20260505010039 65 217 0.0 0.0 0.00 0.00 0.00 45 1015.5
20260505005540 65 217 0.0 0.0 0.00 0.00 0.00 45 1015.4
20260505005040 65 217 0.0 0.0 0.00 0.00 0.00 44 1015.4
20260505004540 66 217 0.0 1.0 0.00 0.00 0.00 44 1015.4
20260505004040 66 217 0.0 1.0 0.00 0.00 0.00 43 1015.2
20260505003539 67 217 0.0 1.0 0.00 0.00 0.00 43 1015.3
20260505003039 67 217 0.0 2.0 0.00 0.00 0.00 42 1015.2
20260505002539 68 217 0.0 3.0 0.00 0.00 0.00 42 1015.2
20260505002039 68 209 1.0 5.0 0.00 0.00 0.00 41 1015.1
20260505001539 68 209 1.0 5.0 0.00 0.00 0.00 41 1015.1
20260505001038 68 215 1.0 4.0 0.00 0.00 0.00 41 1015.1
20260505000538 69 202 0.0 4.0 0.00 0.00 0.00 40 1015.1
20260505000048 69 223 0.0 5.0 0.00 0.00 0.00 39 1015.1
20260504235538 70 238 2.0 5.0 0.00 0.00 0.00 39 1015.0
20260504235038 70 76 2.0 5.0 0.00 0.00 0.00 38 1015.0
20260504234537 70 213 1.0 5.0 0.00 0.00 0.00 38 1014.9
20260504234037 71 200 1.0 6.0 0.00 0.00 0.00 38 1014.9
20260504233537 71 212 2.0 5.0 0.00 0.00 0.00 37 1014.8
20260504233049 71 267 2.0 6.0 0.00 0.00 0.00 38 1014.7
20260504232537 72 228 0.0 7.0 0.00 0.00 0.00 37 1014.7
20260504232037 72 155 3.0 7.0 0.00 0.00 0.00 37 1014.7
20260504231538 72 211 2.0 6.0 0.00 0.00 0.00 36 1014.7
20260504231037 72 161 2.0 6.0 0.00 0.00 0.00 37 1014.6
20260504230539 73 64 1.0 7.0 0.00 0.00 0.00 36 1014.4
20260504230036 73 179 2.0 10.0 0.00 0.00 0.00 37 1014.6
20260504225536 73 217 0.0 5.0 0.00 0.00 0.00 37 1014.6
20260504225037 73 66 1.0 4.0 0.00 0.00 0.00 38 1014.6
20260504224541 73 213 0.0 8.0 0.00 0.00 0.00 38 1014.5
20260504224036 74 282 2.0 8.0 0.00 0.00 0.00 35 1014.5
20260504223536 74 210 1.0 5.0 0.00 0.00 0.00 36 1014.5
20260504223036 74 219 2.0 6.0 0.00 0.00 0.00 36 1014.6
20260504222539 74 193 2.0 6.0 0.00 0.00 0.00 36 1014.4
20260504222038 74 232 0.0 9.0 0.00 0.00 0.00 35 1014.4
20260504221535 74 188 2.0 9.0 0.00 0.00 0.00 34 1014.4
20260504221037 75 228 0.0 8.0 0.00 0.00 0.00 35 1014.4
20260504220535 75 238 3.0 8.0 0.00 0.00 0.00 32 1014.4
20260504220035 76 281 2.0 7.0 0.00 0.00 0.00 32 1014.4
20260504215536 76 229 2.0 6.0 0.00 0.00 0.00 33 1014.5
20260504215034 76 220 1.0 6.0 0.00 0.00 0.00 32 1014.4
20260504214534 76 202 1.0 6.0 0.00 0.00 0.00 34 1014.6
20260504214034 76 72 1.0 9.0 0.00 0.00 0.00 33 1014.6
20260504213534 76 223 3.0 10.0 0.00 0.00 0.00 33 1014.5
20260504213037 76 138 3.0 10.0 0.00 0.00 0.00 32 1014.4
20260504212533 76 93 2.0 8.0 0.00 0.00 0.00 32 1014.5
20260504212034 76 225 2.0 10.0 0.00 0.00 0.00 36 1014.4
20260504211532 76 211 5.0 10.0 0.00 0.00 0.00 33 1014.5
20260504211033 76 199 3.0 9.0 0.00 0.00 0.00 33 1014.6
20260504210532 76 22 2.0 10.0 0.00 0.00 0.00 34 1014.5
20260504210031 76 190 4.0 10.0 0.00 0.00 0.00 33 1014.5
20260504205531 76 232 2.0 10.0 0.00 0.00 0.00 35 1014.6
20260504205029 76 202 1.0 10.0 0.00 0.00 0.00 33 1014.7
20260504204529 76 179 2.0 9.0 0.00 0.00 0.00 35 1014.7
20260504204029 77 234 2.0 8.0 0.00 0.00 0.00 34 1014.9
20260504203528 76 86 1.0 12.0 0.00 0.00 0.00 36 1014.8
20260504203028 76 226 3.0 12.0 0.00 0.00 0.00 35 1014.9
20260504202529 77 261 3.0 7.0 0.00 0.00 0.00 33 1014.9
20260504202027 77 194 1.0 7.0 0.00 0.00 0.00 34 1015.0
20260504201527 77 152 1.0 7.0 0.00 0.00 0.00 34 1015.0
20260504201025 77 161 2.0 7.0 0.00 0.00 0.00 38 1015.1
20260504200525 77 245 3.0 7.0 0.00 0.00 0.00 34 1015.2
20260504200028 77 168 2.0 6.0 0.00 0.00 0.00 35 1015.4
20260504195523 77 198 2.0 7.0 0.00 0.00 0.00 34 1015.3
20260504195023 77 127 1.0 5.0 0.00 0.00 0.00 36 1015.3
20260504194529 76 96 0.0 6.0 0.00 0.00 0.00 34 1015.4
20260504194022 76 344 3.0 6.0 0.00 0.00 0.00 32 1015.4
20260504193522 77 205 2.0 6.0 0.00 0.00 0.00 36 1015.5
20260504193022 76 134 2.0 5.0 0.00 0.00 0.00 32 1015.6
20260504192521 77 107 1.0 6.0 0.00 0.00 0.00 35 1015.7
20260504192021 77 233 1.0 8.0 0.00 0.00 0.00 35 1015.8
20260504191520 78 243 1.0 8.0 0.00 0.00 0.00 37 1015.8
20260504191019 76 305 2.0 6.0 0.00 0.00 0.00 33 1015.8
20260504190518 77 147 3.0 5.0 0.00 0.00 0.00 37 1016.0
20260504190023 76 184 2.0 5.0 0.00 0.00 0.00 42 1016.1
20260504185515 76 134 2.0 6.0 0.00 0.00 0.00 34 1016.1
20260504185015 76 201 0.0 5.0 0.00 0.00 0.00 37 1016.2
20260504184518 76 198 2.0 9.0 0.00 0.00 0.00 37 1016.4
20260504184014 76 270 4.0 9.0 0.00 0.00 0.00 36 1016.3
20260504183513 75 245 1.0 9.0 0.00 0.00 0.00 39 1016.4
20260504183012 75 205 3.0 8.0 0.00 0.00 0.00 35 1016.6
20260504182513 74 271 1.0 8.0 0.00 0.00 0.00 38 1016.7
20260504182010 74 205 2.0 8.0 0.00 0.00 0.00 37 1016.7
20260504181512 74 255 2.0 8.0 0.00 0.00 0.00 38 1016.8
20260504181014 74 274 3.0 6.0 0.00 0.00 0.00 37 1016.8
20260504180510 75 250 3.0 7.0 0.00 0.00 0.00 35 1016.8
20260504180007 74 284 1.0 6.0 0.00 0.00 0.00 38 1016.9
20260504175509 73 313 2.0 6.0 0.00 0.00 0.00 39 1016.9
20260504175010 71 89 1.0 3.0 0.00 0.00 0.00 36 1017.0
20260504174509 72 43 0.0 7.0 0.00 0.00 0.00 37 1017.0
20260504174006 73 210 3.0 11.0 0.00 0.00 0.00 35 1017.1
20260504173506 74 211 4.0 11.0 0.00 0.00 0.00 36 1017.0
20260504173006 73 138 2.0 8.0 0.00 0.00 0.00 39 1017.0
20260504172504 73 147 3.0 8.0 0.00 0.00 0.00 36 1017.1
20260504172003 72 319 2.0 6.0 0.00 0.00 0.00 37 1017.1
20260504171503 72 265 0.0 6.0 0.00 0.00 0.00 43 1017.2
20260504171003 72 234 2.0 4.0 0.00 0.00 0.00 37 1017.2
20260504170502 72 228 1.0 4.0 0.00 0.00 0.00 41 1017.3
20260504151047 67 304 1.0 7.0 0.00 0.00 0.00 43 1019.4
20260504150547 67 236 2.0 7.0 0.00 0.00 0.00 38 1019.4
20260504141036 64 267 1.0 4.0 0.00 0.00 0.00 49 1019.2
20260504140535 63 336 1.0 7.0 0.00 0.00 0.00 50 1019.1
20260504130522 56 238 0.0 3.0 0.00 0.00 0.00 65 1019.1
20260504110503 40 254 0.0 1.0 0.00 0.00 0.00 91 1018.6
20260504100600 39 253 0.0 0.0 0.00 0.00 0.00 92 1018.7
20260504100104 39 253 0.0 0.0 0.00 0.00 0.00 92 1018.6
20260504090107 40 260 0.0 0.0 0.00 0.00 0.00 90 1018.9
20260504081553 40 260 0.0 0.0 0.00 0.00 0.00 89 1018.3
20260504081049 41 260 0.0 0.0 0.00 0.00 0.00 90 1018.4
20260504080549 41 260 0.0 0.0 0.00 0.00 0.00 89 1018.3
20260504050532 44 223 0.0 0.0 0.00 0.00 0.00 83 1018.9
20260504045530 44 223 0.0 0.0 0.00 0.00 0.00 83 1018.8
20260504045030 44 223 0.0 0.0 0.00 0.00 0.00 83 1018.9
20260504044531 44 223 0.0 0.0 0.00 0.00 0.00 83 1018.8
20260504044030 44 223 0.0 0.0 0.00 0.00 0.00 82 1018.8
20260504043528 45 223 0.0 0.0 0.00 0.00 0.00 82 1018.7
20260504043042 45 223 0.0 0.0 0.00 0.00 0.00 82 1018.6
20260504042527 45 223 0.0 0.0 0.00 0.00 0.00 82 1018.7
20260504042026 45 223 0.0 0.0 0.00 0.00 0.00 82 1018.7
20260504041530 45 223 0.0 0.0 0.00 0.00 0.00 81 1018.6
20260504041026 45 223 0.0 0.0 0.00 0.00 0.00 81 1018.5
20260504040524 45 223 0.0 0.0 0.00 0.00 0.00 80 1018.5
20260504040025 46 223 0.0 0.0 0.00 0.00 0.00 79 1018.5
20260504035525 46 223 0.0 0.0 0.00 0.00 0.00 79 1018.4
20260504035024 46 223 0.0 0.0 0.00 0.00 0.00 78 1018.5